Location: Newark
(43.3746°N, 5.6066°E)
Time: 14:39:20
(UTC+00:00)

Envisat - Visible Passes

Search period start: 20 January 2021 00:00
Search period end: 30 January 2021 00:00
Orbit: 764 x 766 km, 98.1° (Epoch: 20 January)

Date Brightness Start Highest point End Pass type
(mag) Time Alt. Az. Time Alt. Az. Time Alt. Az.
20 Jan 5.5 04:23:49 10° NE 04:27:39 21° E 04:31:27 10° SE visible
20 Jan 3.2 06:02:02 10° N 06:06:55 48° WNW 06:11:46 10° SW visible
20 Jan 5.0 17:18:04 10° SSW 17:22:37 33° W 17:27:12 10° NNW visible
21 Jan 3.1 05:25:04 10° NNE 05:30:11 79° ESE 05:35:16 10° S visible
22 Jan 4.6 04:48:34 10° NNE 04:53:15 36° E 04:57:54 10° SSE visible
22 Jan 3.8 06:27:48 10° N 06:32:08 29° WNW 06:36:28 10° SW visible
22 Jan 5.9 17:44:38 10° SW 17:48:14 19° W 17:51:52 10° NW visible
23 Jan 5.8 04:12:53 10° NE 04:16:08 17° E 04:19:20 10° SE visible
23 Jan 3.0 05:50:32 10° N 05:55:33 61° WNW 06:00:32 10° SSW visible
23 Jan 4.6 17:06:22 10° SSW 17:11:09 41° W 17:15:57 10° NNW visible
24 Jan 3.5 05:13:42 10° NNE 05:18:45 63° E 05:23:47 10° S visible
24 Jan 6.5 18:12:48 10° W 18:13:58 11° W 18:15:08 10° WNW visible
25 Jan 5.0 04:37:22 10° NE 04:41:46 29° E 04:46:08 10° SSE visible
25 Jan 3.5 06:16:12 10° N 06:20:49 36° WNW 06:25:25 10° SW visible
25 Jan 5.6 17:32:38 10° SSW 17:36:43 24° W 17:40:50 10° NW visible
26 Jan 6.1 04:02:14 10° ENE 04:04:35 13° E 04:06:55 10° ESE visible
26 Jan 2.9 05:39:04 10° N 05:44:10 77° WNW 05:49:14 10° SSW visible
27 Jan 3.9 05:02:22 10° NNE 05:07:19 49° E 05:12:13 10° S visible
27 Jan 6.2 17:59:48 10° WSW 18:02:24 14° W 18:05:01 10° WNW visible
28 Jan 5.4 04:26:16 10° NE 04:30:16 23° E 04:34:14 10° SE visible
28 Jan 3.3 06:04:39 10° N 06:09:28 45° WNW 06:14:17 10° SW visible
28 Jan 5.2 17:20:47 10° SSW 17:25:13 30° W 17:29:42 10° NNW visible
29 Jan 3.0 05:27:39 10° NNE 05:32:46 85° ESE 05:37:50 10° SSW visible
